Home   Weather   Jefferson City   Past weeks

Flag for USA Past Weather in Jefferson City, Missouri, USA — Yesterday and Last 2 Weeks

Now
46 °F

Mostly cloudy.


Feels Like: 40 °F
Forecast: 26 / 46 °F
Wind: 14 mph from Southwest

Location: Jefferson City Memorial Airport

Current Time: Feb 26, 2017 at 3:36:53 pm

Latest Report: Feb 26, 2017 at 2:53 pm


Visibility: 10 mi

Pressure: 30.02 "Hg

Humidity: 48%

Dew Point: 27 °F

Location of Jefferson CityLocation

Past Weather in Jefferson City — Graph

°F

Jefferson City Temperature Yesterday

Maximum temperature yesterday: 41 °F (at 3:53 pm)
Minimum temperature yesterday: 25 °F (at 6:53 am)
Average temperature yesterday: 30 °F

High & Low Weather Summary for the Past Weeks

 TemperatureHumidityPressure
High77 °F (Feb 19, 3:53 pm)100% (Feb 19, 5:03 am)30.43 "Hg (Feb 19, 5:03 am)
Low23 °F (Feb 13, 3:53 am)19% (Feb 16, 2:53 pm)29.36 "Hg (Feb 24, 3:53 am)
Average50 °F65%29.90 "Hg
* Reported Feb 11 1:53 pm — Feb 26 1:53 pm, Jefferson City, Weather by CustomWeather, © 2017

Note: Actual official high and low records may vary slightly from our data, if they occured in-between our weather recording intervals... More about our weather records

Advertising

Jefferson City Weather History for the Previous 24 Hours

Scroll right to see more
 ConditionsComfort  
Time TempWeatherWind HumidityBarometerVisibility
1:53 pm
Sun, Feb 26
48 °FMostly cloudy.12 mph33%30.02 "Hg10 mi
12:53 pm46 °FPassing clouds.12 mph33%30.04 "Hg10 mi
11:53 am44 °FPartly sunny.13 mph32%30.07 "Hg10 mi
10:53 am41 °FPartly sunny.No wind38%30.09 "Hg10 mi
9:53 am38 °FOvercast.5 mph39%30.09 "Hg10 mi
8:53 am37 °FOvercast.7 mph41%30.08 "Hg10 mi
7:53 am33 °FOvercast.3 mph48%30.07 "Hg10 mi
6:53 am32 °FSunny.3 mph47%30.06 "Hg10 mi
5:53 am31 °FClear.3 mph47%30.05 "Hg10 mi
4:53 am29 °FClear.5 mph54%30.04 "Hg8 mi
3:53 am29 °FClear.5 mph51%30.06 "Hg8 mi
2:53 am23 °FClear.7 mph72%30.06 "Hg10 mi
1:53 am23 °FClear.7 mph72%30.08 "Hg10 mi
12:53 am25 °FClear.6 mph69%30.09 "Hg10 mi
11:53 pm
Sat, Feb 25
26 °FClear.5 mph66%30.09 "Hg10 mi
10:53 pm28 °FPassing clouds.6 mph58%30.10 "Hg10 mi
9:53 pm25 °FClear.5 mph69%30.11 "Hg10 mi
8:53 pm30 °FClear.No wind49%30.10 "Hg10 mi
7:53 pm31 °FClear.No wind47%30.10 "Hg10 mi
6:53 pm36 °FClear.No wind38%30.10 "Hg10 mi
5:53 pm39 °FSunny.5 mph31%30.10 "Hg10 mi
4:53 pm41 °FSunny.10 mph27%30.10 "Hg10 mi
3:53 pm41 °FSunny.9 mph27%30.10 "Hg10 mi
Weather by CustomWeather, © 2017

See weather overviewHow to use our weather pages